[[{"header":{"parameterUnit":"m.s-1","parameterCategory":1,"la1":30.2991,"la2":30.254,"lo1":-89.0895,"lo2":-89.0444,"dy":0.0017,"dx":0.0017,"nx":28,"ny":28,"refTime":"2025-07-27T21:00:00:Z","depth":0,"parameterNumber":2,"parameterNumberName":"U-component_of_WINDS"},"data":[0,0,0,0,0,0,0,0,0,0,0,0,0,0,0,0,0,0,0,0,0,0,0,0,0,0,0,0,0,0,0,0,0,0,0,0,0,0,0,0,0,0,0,0,0,0,0,0,0,0,0,0,0,0,0,0,0,0,3.077,3.0771,0,3.0799,3.08,3.08,3.0739,3.0737,3.0735,3.0733,3.0762,3.0764,3.0767,0,0,0,0,0,0,0,0,0,0,0,0,0,3.0662,3.0664,3.077,3.0771,3.0771,3.0799,3.08,3.08,3.0739,3.0737,3.0734,3.0732,3.0761,3.0764,3.0767,0,0,0,0,0,0,0,0,0,0,0,0,0,3.0702,3.0665,3.077,3.0744,3.0742,3.0799,3.08,3.08,3.074,3.0737,3.0734,3.0731,3.076,3.0763,3.0767,3.0851,0,0,3.0779,3.0781,0,0,0,0,0,0,0,0,3.07,3.0706,3.0748,3.0746,3.0744,3.0762,3.0772,3.0817,3.074,3.0741,3.0733,3.0729,3.0764,3.0768,3.0779,3.0852,3.0854,3.078,3.0782,3.0784,3.0785,0,0,0,0,0,0,0,3.0697,3.0704,3.0782,3.0748,3.0746,3.0731,3.0733,3.078,3.0769,3.074,3.0736,3.074,3.0763,3.0776,3.078,3.0854,3.078,3.0783,3.0785,3.0787,3.0999,3.1002,0,0,0,0,0,0,3.0698,3.0702,3.0781,3.0783,3.0714,3.0735,3.0738,3.0759,3.0768,3.0766,3.0743,3.0737,3.0771,3.0775,3.078,3.088,3.0784,3.0787,3.079,3.0996,3.1,3.1003,0,0,0,0,0,0,3.0696,3.0705,3.078,3.0741,3.075,3.074,3.0765,3.0762,3.0775,3.077,3.0767,3.0759,3.0768,3.0775,3.0834,3.088,3.0789,3.0793,3.0992,3.0997,3.1001,3.1079,0,0,0,0,0,0,3.0693,3.0705,3.0736,3.0743,3.0752,3.0833,3.0768,3.0764,3.0782,3.0775,3.0784,3.0783,3.0767,3.0829,3.0838,3.0884,3.0796,3.0988,3.0994,3.1,3.1073,3.1086,3.1098,0,0,0,0,0,3.0689,3.0756,3.0738,3.0748,3.0791,3.0836,3.0841,3.0822,3.0786,3.0818,3.0815,3.0782,3.0874,3.0836,3.0846,3.0893,3.0985,3.0992,3.0999,3.1067,3.1084,3.1098,0,0,0,0,0,0,3.0755,3.0757,3.0737,3.0808,3.0823,3.0826,3.0865,3.084,3.0865,3.0857,3.0832,3.0834,3.0899,3.0902,3.0859,3.0975,3.0923,3.0933,3.0971,3.0987,3.0999,3.0997,3.0799,0,0,0,0,0,3.0778,3.0814,3.0814,3.0877,3.0885,3.0874,3.0893,3.0877,3.0891,3.0896,3.0898,3.0912,3.0944,3.0966,3.0995,3.1073,3.1075,3.1111,3.1123,3.1134,3.1142,3.1185,3.1202,3.1027,3.1027,3.1027,0,0,3.0825,3.0831,3.0855,3.089,3.09,3.0938,3.088,3.0922,3.0951,3.0902,3.0959,3.0961,3.0975,3.1045,3.1076,3.105,3.1191,3.1143,3.1152,3.1155,3.1195,3.1211,3.1226,3.1032,3.1032,3.1031,0,0,3.0931,3.0939,3.0993,3.1004,3.102,3.1012,3.1025,3.1033,3.1033,3.1089,3.1055,3.1088,3.1143,3.1156,3.1169,3.1283,3.1254,3.1293,3.1359,3.1401,3.1415,3.1427,3.1468,3.1483,3.1302,3.1302,3.1302,0,3.0988,3.1045,3.1024,3.107,3.1087,3.1046,3.1101,3.1113,3.1137,3.115,3.112,3.119,3.1197,3.127,3.1298,3.131,3.1324,3.1291,3.1415,3.1427,3.1437,3.1476,3.1492,3.1306,3.1306,3.1305,3.1305,0,3.1114,3.1154,3.1196,3.1222,3.1243,3.1294,3.1281,3.1305,3.1288,3.1284,3.1343,3.135,3.1381,3.1397,3.138,3.1468,3.1451,3.1419,3.1366,3.1459,3.1495,3.151,3.1313,3.1311,3.131,3.1309,0,0,3.1261,3.1276,3.1292,3.1303,3.1319,3.1349,3.1398,3.1429,3.1451,3.1469,3.151,3.1559,3.153,3.1545,3.153,3.1567,3.1657,3.153,3.153,3.1553,3.1756,3.178,3.1798,3.1639,3.1642,3.1644,3.1755,0,3.1366,3.1451,3.1435,3.1517,3.1555,3.1518,3.1561,3.1575,3.1573,3.1605,3.1602,3.1638,3.1596,3.1605,3.164,3.1639,3.1698,3.1631,3.1677,3.1679,3.1674,3.1816,3.1842,3.1946,3.1769,3.1771,3.1773,0,3.15,3.1525,3.1612,3.1623,3.1638,3.1677,3.1705,3.1735,3.1751,3.1747,3.1766,3.1744,3.1793,3.174,3.1808,3.1763,3.1781,3.1783,3.1787,3.179,3.1731,3.1824,3.1978,3.1994,3.1795,3.1793,3.1791,0,3.1599,3.1655,3.1714,3.1725,3.1739,3.1768,3.1775,3.1788,3.1808,3.1832,3.1845,3.1875,3.1891,3.1915,3.1902,3.1864,3.1972,3.1918,3.1971,3.1971,3.1994,3.1993,3.2154,3.2007,3.2006,3.2006,3.2006,0,3.1719,3.1773,3.1759,3.1795,3.1856,3.1837,3.1898,3.19,3.1913,3.195,3.192,3.1955,3.1935,3.1969,3.1959,3.2017,3.2025,3.2023,3.202,3.2026,3.2026,3.2037,3.2029,3.201,3.2009,3.2008,3.2008,0,3.1839,3.1831,3.1894,3.1903,3.1907,3.1951,3.1959,3.1993,3.199,3.2037,3.2047,3.2041,3.208,3.2069,3.2111,3.2104,3.2178,3.2165,3.2173,3.217,3.2223,3.2218,3.2397,3.242,3.2257,3.2259,3.226,0,3.1916,3.1957,3.1971,3.1994,3.2004,3.2041,3.2062,3.2046,3.2069,3.2091,3.2123,3.2159,3.2187,3.225,3.225,3.2282,3.227,3.2331,3.2274,3.228,3.2271,3.2269,3.2273,3.2341,3.2343,3.2345,3.2346,0,3.2053,3.2047,3.2079,3.211,3.2136,3.216,3.218,3.2201,3.2186,3.2214,3.2254,3.2275,3.2319,3.2355,3.2385,3.2392,3.2367,3.2364,3.2378,3.2384,3.2387,3.2387,3.2203,3.236,3.2358,3.2357,3.2356,3.2356,3.2153,3.2189,3.2205,3.2242,3.2256,3.2277,3.231,3.2312,3.2345,3.2379,3.2368,3.2413,3.2429,3.2467,3.2478,3.2514,3.249,3.251,3.2516,3.2521,3.2528,3.2382,3.2519,3.2518,3.2518,3.2518,3.2517,0,3.2289,3.2298,3.2333,3.2363,3.2393,3.2368,3.239,3.2416,3.2456,3.2474,3.2503,3.2549,3.2585,3.2588,3.2622,3.265,3.2639,3.2659,3.2657,3.2659,3.2546,3.2531,3.2667,3.2667,3.2667,3.2667,3.2667,3.2667,3.2363,3.2423,3.242,3.2487,3.2495,3.254,3.2555,3.2574,3.2588,3.2642,3.2672,3.2674,3.2686,3.2721,3.2753,3.2753,3.2767,3.2791,3.2787,3.2682,3.2667,3.2652,3.2638,3.2794,3.2795,3.2897,3.2898,3.2899]},{"header":{"parameterUnit":"m.s-1","parameterCategory":1,"la1":30.2991,"la2":30.254,"lo1":-89.0895,"lo2":-89.0444,"dy":0.0017,"dx":0.0017,"nx":28,"ny":28,"refTime":"2025-07-27T21:00:00:Z","depth":0,"parameterNumber":3,"parameterNumberName":"V-component_of_WINDS"},"data":[0,0,0,0,0,0,0,0,0,0,0,0,0,0,0,0,0,0,0,0,0,0,0,0,0,0,0,0,0,0,0,0,0,0,0,0,0,0,0,0,0,0,0,0,0,0,0,0,0,0,0,0,0,0,0,0,0,0,-2.7819,-2.7819,0,-2.79,-2.7901,-2.7902,-2.7875,-2.7874,-2.7872,-2.787,-2.7953,-2.7957,-2.7961,0,0,0,0,0,0,0,0,0,0,0,0,0,-2.764,-2.7643,-2.7819,-2.782,-2.7821,-2.79,-2.7901,-2.7903,-2.7876,-2.7874,-2.7871,-2.7869,-2.7952,-2.7957,-2.7961,0,0,0,0,0,0,0,0,0,0,0,0,0,-2.7719,-2.7644,-2.7818,-2.7817,-2.7817,-2.79,-2.7901,-2.7903,-2.7876,-2.7873,-2.7871,-2.7868,-2.7951,-2.7956,-2.7962,-2.8051,0,0,-2.798,-2.7982,0,0,0,0,0,0,0,0,-2.7714,-2.7726,-2.7816,-2.7817,-2.7818,-2.7875,-2.7869,-2.7952,-2.7877,-2.7854,-2.787,-2.7867,-2.7929,-2.7937,-2.7958,-2.8055,-2.8058,-2.798,-2.7984,-2.7986,-2.7988,0,0,0,0,0,0,0,-2.7709,-2.7722,-2.7851,-2.7817,-2.7819,-2.7812,-2.7821,-2.7885,-2.7905,-2.7856,-2.7854,-2.7864,-2.7929,-2.7952,-2.796,-2.8059,-2.798,-2.7985,-2.7989,-2.7991,-2.8235,-2.8238,0,0,0,0,0,0,-2.7703,-2.7717,-2.7848,-2.7853,-2.7759,-2.7818,-2.7827,-2.7859,-2.7905,-2.7909,-2.7866,-2.7862,-2.7944,-2.7953,-2.7962,-2.807,-2.7986,-2.7992,-2.7995,-2.8232,-2.8235,-2.8239,0,0,0,0,0,0,-2.7699,-2.7715,-2.7845,-2.7785,-2.7801,-2.7824,-2.786,-2.7862,-2.7885,-2.7913,-2.7916,-2.7886,-2.7942,-2.7954,-2.8029,-2.8073,-2.7994,-2.7999,-2.8228,-2.8233,-2.8237,-2.8287,0,0,0,0,0,0,-2.7694,-2.7714,-2.7747,-2.7786,-2.7804,-2.7911,-2.7863,-2.7866,-2.7895,-2.7891,-2.7932,-2.7936,-2.7941,-2.8021,-2.8035,-2.8079,-2.8004,-2.8224,-2.823,-2.8236,-2.8281,-2.8292,-2.8302,0,0,0,0,0,-2.7688,-2.7758,-2.7749,-2.7765,-2.7847,-2.7913,-2.7924,-2.7928,-2.7899,-2.7933,-2.7951,-2.7935,-2.8066,-2.8029,-2.8045,-2.8091,-2.8222,-2.8229,-2.8235,-2.8277,-2.829,-2.8301,0,0,0,0,0,0,-2.7723,-2.7763,-2.7754,-2.7838,-2.7873,-2.7908,-2.7952,-2.7942,-2.7985,-2.7979,-2.7982,-2.7992,-2.8069,-2.8088,-2.8046,-2.8181,-2.814,-2.815,-2.8166,-2.8179,-2.8189,-2.8183,-2.8009,0,0,0,0,0,-2.7741,-2.7791,-2.7823,-2.7894,-2.7912,-2.7929,-2.7958,-2.7958,-2.7994,-2.8008,-2.8032,-2.8067,-2.8116,-2.8148,-2.8195,-2.8284,-2.8293,-2.8324,-2.8334,-2.8342,-2.8351,-2.8401,-2.8415,-2.8261,-2.8261,-2.8261,0,0,-2.7777,-2.7805,-2.7837,-2.7902,-2.7929,-2.7981,-2.7941,-2.7998,-2.8037,-2.8017,-2.8089,-2.8108,-2.8148,-2.823,-2.8268,-2.8248,-2.8396,-2.8351,-2.8357,-2.8362,-2.8409,-2.8424,-2.8437,-2.8266,-2.8265,-2.8264,0,0,-2.7871,-2.7897,-2.796,-2.7988,-2.8029,-2.804,-2.8056,-2.8094,-2.8105,-2.8178,-2.8165,-2.8211,-2.8296,-2.8325,-2.8351,-2.8458,-2.8445,-2.8473,-2.8527,-2.8575,-2.8587,-2.8598,-2.8637,-2.8651,-2.8482,-2.8482,-2.8482,0,-2.7912,-2.799,-2.7993,-2.8052,-2.8081,-2.8066,-2.813,-2.8157,-2.8212,-2.8233,-2.821,-2.8317,-2.8342,-2.8432,-2.8458,-2.848,-2.8498,-2.8468,-2.8585,-2.8596,-2.8606,-2.8643,-2.8658,-2.8485,-2.8485,-2.8484,-2.8484,0,-2.8038,-2.8093,-2.8138,-2.8192,-2.8227,-2.8288,-2.8301,-2.8336,-2.8334,-2.8348,-2.8423,-2.8453,-2.8507,-2.8528,-2.8526,-2.8618,-2.8605,-2.8584,-2.8543,-2.8624,-2.8659,-2.8673,-2.849,-2.8488,-2.8487,-2.8487,0,0,-2.8155,-2.8211,-2.8228,-2.8253,-2.8298,-2.8341,-2.8401,-2.8454,-2.8484,-2.8523,-2.8574,-2.8647,-2.8628,-2.8658,-2.8659,-2.8701,-2.8786,-2.8675,-2.8676,-2.8695,-2.8891,-2.8907,-2.8923,-2.8777,-2.878,-2.8782,-2.8888,0,-2.8253,-2.836,-2.8366,-2.8463,-2.8514,-2.8502,-2.8555,-2.8588,-2.8603,-2.8649,-2.8666,-2.8718,-2.8688,-2.8706,-2.8748,-2.8767,-2.8825,-2.8759,-2.8826,-2.8828,-2.8817,-2.8941,-2.8958,-2.9056,-2.8901,-2.8904,-2.8905,0,-2.8382,-2.8425,-2.8527,-2.8567,-2.8589,-2.8636,-2.8686,-2.8729,-2.8768,-2.8776,-2.881,-2.8806,-2.8869,-2.8826,-2.8913,-2.8868,-2.8896,-2.891,-2.8914,-2.892,-2.8872,-2.8952,-2.9087,-2.9102,-2.8927,-2.8925,-2.8923,0,-2.8458,-2.8542,-2.8614,-2.8636,-2.8683,-2.8717,-2.8739,-2.8775,-2.8807,-2.885,-2.8871,-2.8921,-2.8948,-2.8987,-2.8997,-2.8965,-2.9085,-2.9042,-2.9094,-2.9094,-2.912,-2.9118,-2.9262,-2.9137,-2.9137,-2.9136,-2.9136,0,-2.8567,-2.863,-2.8649,-2.8694,-2.8765,-2.8772,-2.8842,-2.8861,-2.8894,-2.8942,-2.8934,-2.898,-2.899,-2.9038,-2.9046,-2.9118,-2.913,-2.9139,-2.914,-2.914,-2.9139,-2.9158,-2.9152,-2.914,-2.9139,-2.9139,-2.9138,0,-2.8664,-2.8679,-2.8758,-2.8797,-2.8808,-2.8859,-2.8892,-2.8936,-2.895,-2.9012,-2.9027,-2.905,-2.9106,-2.912,-2.9187,-2.9192,-2.9277,-2.9272,-2.9265,-2.9264,-2.9316,-2.9311,-2.9477,-2.95,-2.936,-2.9361,-2.9362,0,-2.8733,-2.8781,-2.8826,-2.8858,-2.8882,-2.8933,-2.8966,-2.8975,-2.9009,-2.9058,-2.9096,-2.9151,-2.9196,-2.9287,-2.9309,-2.9361,-2.9357,-2.9412,-2.9365,-2.9364,-2.9359,-2.9356,-2.9362,-2.9421,-2.9423,-2.9424,-2.9425,0,-2.8853,-2.8859,-2.8906,-2.8958,-2.8997,-2.9037,-2.9076,-2.9103,-2.9117,-2.9156,-2.9214,-2.9249,-2.9318,-2.9374,-2.9426,-2.9449,-2.944,-2.944,-2.9454,-2.9455,-2.9449,-2.9454,-2.929,-2.9436,-2.9435,-2.9434,-2.9433,-2.9433,-2.8939,-2.8982,-2.9021,-2.9075,-2.9105,-2.9142,-2.9185,-2.9205,-2.9253,-2.9311,-2.9313,-2.9376,-2.9415,-2.9484,-2.951,-2.956,-2.9543,-2.9564,-2.957,-2.9575,-2.958,-2.9441,-2.9569,-2.9569,-2.9569,-2.9569,-2.9568,0,-2.906,-2.9085,-2.9134,-2.9189,-2.9232,-2.922,-2.9262,-2.9299,-2.9355,-2.9392,-2.9437,-2.9504,-2.9558,-2.9586,-2.964,-2.9675,-2.9672,-2.9689,-2.9687,-2.9692,-2.9592,-2.9574,-2.969,-2.969,-2.969,-2.969,-2.969,-2.969,-2.9128,-2.9201,-2.9211,-2.93,-2.9324,-2.9386,-2.9412,-2.9446,-2.9476,-2.9551,-2.9597,-2.9615,-2.9648,-2.9705,-2.9755,-2.9762,-2.9782,-2.9801,-2.9806,-2.9712,-2.9699,-2.9687,-2.9671,-2.9806,-2.9806,-2.9903,-2.9904,-2.9904]}]]